Temperature
16 17 17 17 17 17 16 15 15 15 15 16 15 16 16 16 16 16 16 16 16 16 15 15 15 15 15 15 15 14 14 14 14 14 14 14 14 13 13 13 13 13 14 14
16 17 17 17 17 17 17 16 16 16 16 15 16 16 16 16 16 15 15 15 16 15 15 15 15 15 15 15 14 14 14 14 14 14 14 13 13 13 13 13 13 13 13 13
14 15 16 15 16 16 16 16 16 15 15 15 15 15 15 15 15 15 15 15 15 15 15 15 15 15 15 14 14 14 14 14 13 13 13 13 13 13 13 13 13 13 13 13
13 15 15 15 16 16 16 16 15 15 15 15 15 15 15 16 15 15 15 15 15 15 15 15 14 14 14 14 14 14 13 13 13 13 13 13 12 12 12 12 12 13 13 13
12 13 14 15 16 16 15 15 15 14 14 15 15 15 14 15 15 15 15 15 15 15 14 14 14 14 14 14 13 13 13 13 13 13 13 12 12 12 12 12 12 12 12 12
12 13 13 14 15 16 15 14 14 14 14 14 14 12 12 14 15 15 14 15 14 14 14 14 14 14 14 14 13 13 13 13 12 12 12 12 12 12 12 12 12 12 12 12
11 12 12 13 15 15 14 13 14 14 14 14 13 13 14 14 14 14 14 14 14 14 14 14 14 13 13 13 13 13 13 12 12 12 12 12 12 12 12 12 11 11 11 12
11 12 12 14 14 13 13 14 14 14 14 14 14 14 14 13 13 13 14 14 14 13 13 13 13 13 13 13 13 12 12 12 12 12 12 12 12 11 11 11 11 11 11 11
11 12 13 14 14 14 14 14 14 14 14 14 13 13 13 13 13 13 13 13 13 13 13 13 12 12 12 12 12 12 12 11 11 11 11 11 11 11 11 11 11 11 11 11
11 11 12 13 14 14 14 14 14 13 13 13 13 13 12 12 12 13 13 13 12 12 12 12 12 12 12 12 11 11 11 11 11 11 11 11 11 11 11 11 11 11 11 10
10 11 12 13 13 13 13 13 13 13 13 13 13 12 12 12 12 12 12 12 12 12 12 12 12 11 11 11 11 11 11 11 11 11 11 10 10 10 10 10 10 10 10 10
10 11 11 12 12 12 12 12 12 12 12 12 12 12 12 12 12 12 12 12 11 11 11 11 11 11 11 11 10 10 10 10 10 10 10 10 10 10 10 10 10 10 10 10
13 12 12 12 12 12 12 12 12 12 12 12 11 11 11 11 11 11 11 11 11 11 11 11 10 10 10 10 10 10 10 10 10 10 10 10 9 9 9 9 9 9 9 9
12 12 11 11 11 11 11 11 11 11 11 11 11 11 11 11 10 10 10 10 10 10 10 10 10 10 10 10 10 10 9 9 9 9 9 9 9 9 9 9 9 9 9 9
11 11 11 11 11 11 11 11 11 10 10 10 10 10 10 10 10 10 10 10 10 10 10 10 10 9 9 9 9 9 9 9 9 9 9 9 9 8 8 8 8 8 8 8
10 10 10 10 10 10 10 10 10 10 10 10 10 10 10 9 9 9 9 9 9 9 9 9 9 9 9 9 9 9 8 8 8 8 8 8 8 8 8 8 8 8 7 8
10 9 9 9 9 9 9 9 9 9 9 9 9 9 9 9 9 9 9 9 9 9 8 8 8 8 8 8 8 8 8 8 8 8 8 7 7 7 7 7 7 7 7 7
10 10 9 9 9 9 9 9 9 9 8 8 8 8 8 8 8 8 8 8 8 8 8 8 8 8 8 8 8 7 7 7 7 7 7 7 7 7 7 7 6 6 6 6
9 9 9 9 8 8 8 8 8 8 8 8 8 8 8 8 8 8 8 8 7 7 7 7 7 7 7 7 7 7 7 7 7 7 6 6 6 6 6 6 6 6 6 5
9 8 8 8 8 8 8 8 8 8 8 7 8 7 7 7 7 7 7 7 7 6 7 7 7 7 7 6 6 6 6 6 6 6 6 6 6 6 6 5 5 5 5 5
8 8 8 8 7 7 7 7 7 7 7 7 7 7 7 7 6 6 6 6 6 6 6 6 6 6 6 6 6 6 6 5 5 5 5 5 5 5 5 5 5 5 5 5
8 7 7 7 7 7 7 7 7 7 6 6 6 6 6 6 6 6 6 6 6 6 6 6 6 6 6 5 5 5 5 5 5 5 5 5 5 5 4 4 5 4 4 4
7 7 7 6 6 6 6 6 6 6 6 6 6 6 5 5 5 5 5 5 5 5 5 5 5 5 5 5 5 5 5 5 4 4 4 4 4 4 4 4 4 4 4 4
6 6 6 6 6 6 5 5 5 5 5 5 5 5 5 5 5 5 5 4 4 4 4 4 4 4 4 4 4 4 4 4 4 4 4 4 4 4 4 4 3 3 3 3
6 6 6 6 5 5 5 5 5 5 5 4 4 4 4 4 4 4 4 4 4 4 4 4 4 4 4 4 4 4 4 3 3 3 3 3 3 3 3 3 3 3 3 3
5 5 5 5 5 5 5 4 4 4 4 4 4 4 4 4 4 4 3 3 3 3 4 4 3 3 3 3 3 3 3 3 3 3 3 3 3 3 3 3 3 3 3 3
5 5 5 4 4 4 4 4 4 3 3 3 3 3 3 3 3 3 3 3 3 3 3 3 3 3 3 3 3 2 2 2 2 2 2 2 2 2 2 2 2 2 2 2
Wind_Speed
6 6 5 6 7 6 5 7 7 8 8 9 7 7 5 4 3 3 2 3 4 3 3 3 3 4 4 4 4 4 4 4 5 5 4 3 3 2 2 2 3 3 3 2
5 5 4 6 7 7 7 6 6 6 7 7 5 3 3 4 4 3 2 3 3 2 2 2 3 4 4 4 4 4 5 5 4 4 4 3 3 3 3 2 2 2 3 3
5 6 4 5 5 4 3 3 4 6 6 3 1 3 5 5 4 3 2 2 2 3 3 3 4 4 4 5 5 5 5 4 4 4 4 4 4 3 3 3 3 3 3 3
2 3 4 6 3 2 2 2 2 3 3 3 3 3 2 4 4 3 2 2 2 3 3 3 3 3 3 4 4 5 5 5 5 4 5 4 4 4 3 3 3 3 3 3
2 2 6 6 4 2 1 2 3 1 1 1 2 3 3 1 2 3 3 3 4 4 3 3 3 3 3 3 3 4 4 5 5 5 5 5 5 5 3 3 3 3 3 3
3 3 6 6 5 3 2 2 3 1 2 2 2 1 4 3 0 0 1 1 2 2 2 2 2 3 3 3 4 4 4 4 5 5 6 6 6 5 3 4 4 3 3 4
4 5 6 6 5 2 2 5 3 1 1 1 2 4 4 2 1 1 2 2 2 2 2 3 2 3 3 3 4 5 4 3 4 4 5 5 5 4 3 3 3 3 3 3
4 4 6 4 1 2 4 3 1 1 1 1 1 1 1 1 1 2 2 1 1 1 1 1 2 3 3 4 4 3 3 3 4 4 4 4 4 3 3 4 3 3 2 2
6 6 4 1 2 3 3 2 2 2 2 2 1 1 2 2 2 2 1 1 1 2 1 1 2 3 4 4 2 2 3 3 3 3 3 3 4 4 3 3 3 3 3 3
2 4 3 3 2 2 2 3 3 3 3 2 2 2 2 2 2 1 1 1 0 1 1 2 2 3 4 3 3 2 2 3 3 3 2 2 2 3 3 4 4 4 4 4
3 4 4 4 3 3 2 0 1 1 2 2 2 2 2 2 2 2 2 1 1 1 2 3 3 2 2 2 3 3 3 3 3 3 3 3 3 3 4 5 6 6 5 5
7 6 5 7 6 4 2 2 1 1 1 1 2 2 2 2 2 2 1 1 1 2 2 3 2 3 3 3 4 4 3 3 3 3 3 3 3 2 2 3 5 6 6 5
7 6 5 6 5 4 3 3 2 1 2 1 1 1 2 2 2 1 1 1 2 3 3 3 2 3 3 3 3 4 4 4 4 3 3 3 3 3 2 3 2 3 4 5
4 3 4 5 5 4 3 2 1 1 1 1 1 1 1 1 1 1 2 3 2 1 2 2 1 2 3 2 2 3 3 4 4 4 4 4 3 3 3 3 2 2 3 4
4 3 4 3 3 3 2 1 1 1 1 1 1 1 1 1 2 3 3 2 1 1 2 2 2 3 2 2 2 3 3 3 3 3 3 3 3 3 3 3 3 2 1 2
3 2 2 1 2 3 2 1 2 2 2 2 2 2 2 2 2 2 1 1 0 1 2 2 3 3 2 1 2 2 2 3 2 2 2 2 2 2 2 2 2 3 3 2
2 3 3 2 3 3 2 2 2 2 2 2 3 2 2 1 1 1 1 1 1 2 2 2 3 3 1 1 2 2 2 2 2 2 3 3 3 3 3 2 2 3 3 3
3 4 4 3 2 1 1 1 1 1 2 2 2 1 1 1 2 3 2 1 1 2 3 3 2 2 1 1 2 2 2 2 3 3 3 3 3 3 3 3 3 3 2 2
2 1 1 0 1 1 1 1 1 1 2 1 1 1 2 2 2 2 2 1 1 3 4 4 4 2 2 2 1 2 2 2 2 2 3 3 3 2 3 3 3 3 3 3
1 1 1 0 0 1 0 1 1 1 1 1 1 1 2 2 2 2 1 2 3 4 4 3 3 2 3 3 2 2 2 2 2 2 2 3 3 3 3 3 3 3 3 3
1 1 1 0 1 1 0 0 0 1 2 1 1 1 2 2 2 1 1 3 4 4 3 4 3 3 3 2 2 1 2 2 2 2 3 3 3 3 4 4 4 4 4 4
0 0 0 0 0 1 1 1 0 1 1 2 2 1 1 2 2 2 2 3 4 4 3 3 3 3 3 3 1 2 2 3 3 2 3 3 3 4 4 4 4 4 4 4
1 1 0 0 1 1 2 2 1 1 1 2 2 1 2 2 2 2 4 4 3 5 3 3 4 5 4 2 2 2 3 3 3 3 3 4 4 4 4 4 4 4 4 4
1 1 1 0 0 0 1 2 2 2 2 2 2 2 2 2 3 3 3 5 5 5 3 4 5 5 4 2 2 3 3 3 3 3 4 4 4 4 4 4 4 4 4 5
2 2 1 1 1 1 2 2 2 2 2 2 2 2 2 2 2 3 3 3 4 5 4 5 6 6 3 2 3 3 3 3 4 3 3 3 4 4 4 4 4 4 4 4
2 2 2 3 2 2 2 1 1 2 2 2 3 3 2 2 2 2 3 3 4 5 4 4 4 4 3 3 3 3 3 4 4 4 4 4 4 4 4 4 5 5 4 4
2 2 1 1 1 2 1 1 2 2 2 2 3 3 3 3 3 3 3 3 3 3 3 3 3 3 3 3 3 3 3 3 4 4 4 4 4 4 4 5 4 4 4 4
Wind_Direction
244 251 251 265 269 256 226 214 215 240 236 246 237 224 216 198 178 172 184 181 177 191 202 192 176 176 171 177 173 161 158 172 187 188 182 175 174 175 169 158 162 166 154 154
295 285 287 284 276 257 243 231 229 229 246 251 239 214 179 175 163 171 197 200 187 194 211 203 188 189 184 184 181 165 167 186 188 176 172 176 178 166 158 163 171 158 161 169
280 299 334 290 265 235 224 240 204 225 242 244 209 183 184 178 163 167 184 197 189 203 212 213 209 195 190 191 178 168 178 185 183 179 174 174 174 165 174 181 173 173 180 175
266 348 265 255 286 230 179 279 244 212 211 188 187 190 190 171 173 178 188 192 199 211 226 228 212 195 187 179 176 178 188 196 190 181 184 177 167 174 182 180 178 190 200 193
165 239 273 287 302 276 206 311 310 180 139 101 100 59 349 272 178 187 189 195 205 207 209 209 202 195 170 172 181 184 196 200 194 185 184 181 183 190 192 184 193 203 203 195
164 207 243 258 287 301 102 276 304 133 147 167 96 93 272 290 290 215 234 199 202 214 190 191 206 179 162 185 186 196 205 208 199 188 187 193 197 198 198 189 201 204 215 213
198 223 256 267 293 26 150 248 283 233 179 148 182 214 239 265 295 273 252 232 208 188 190 210 197 162 168 194 212 217 207 201 194 193 197 199 198 195 191 191 191 207 226 236
182 209 253 284 53 159 223 252 271 273 218 189 203 232 254 242 274 284 287 271 226 181 210 218 184 166 181 218 229 212 194 194 194 198 203 201 190 196 195 189 193 204 226 254
197 217 246 279 194 222 200 216 257 248 231 202 208 242 252 264 266 267 262 270 226 173 203 242 202 179 200 234 225 183 177 191 201 202 204 196 191 193 196 194 196 208 210 233
260 259 276 292 314 293 251 236 240 218 214 202 210 230 250 261 273 273 275 275 190 128 179 255 250 218 214 226 208 182 186 201 195 192 205 208 205 198 196 201 202 211 218 226
263 274 307 300 299 287 300 2 108 185 213 216 204 228 242 254 266 269 277 260 187 186 215 245 254 250 236 210 186 189 205 214 206 200 201 208 215 213 210 214 207 208 217 215
239 237 237 262 270 277 273 260 236 234 313 291 218 215 231 247 253 249 249 241 222 226 233 253 254 248 247 216 186 185 210 221 213 205 207 206 211 259 272 237 236 233 227 222
238 249 248 259 272 271 254 262 264 252 239 257 271 202 206 233 257 254 244 216 218 232 245 253 261 264 261 226 194 193 209 218 213 206 206 211 208 207 261 315 298 256 243 237
258 269 276 273 275 278 269 279 275 286 259 211 218 222 217 245 255 260 251 241 231 241 265 264 267 276 266 223 197 203 214 222 215 209 208 212 216 217 215 226 255 282 280 266
273 257 239 265 290 292 281 284 310 304 296 292 279 241 230 237 258 262 257 253 254 325 306 298 290 291 281 216 201 212 224 227 218 210 207 208 213 218 220 224 232 249 279 289
273 292 277 284 290 283 273 256 243 255 263 273 277 259 238 230 250 264 259 213 166 279 283 285 285 288 281 229 223 230 235 244 221 207 202 201 202 208 219 225 232 237 241 246
236 267 273 281 294 288 262 240 224 235 253 262 264 267 271 281 307 304 288 275 252 265 277 270 279 294 307 244 217 228 238 242 236 218 211 212 214 216 218 219 227 239 248 241
217 226 226 217 230 255 272 246 223 256 264 270 287 307 300 270 265 269 277 290 330 333 318 290 287 305 316 275 217 222 224 226 221 218 217 218 221 219 215 218 226 239 263 259
188 201 238 213 210 200 222 246 283 290 286 298 312 288 267 263 263 269 280 303 305 296 293 289 298 296 280 268 258 222 224 225 226 224 215 223 225 223 222 223 228 235 242 245
132 149 150 144 57 125 244 305 348 345 322 312 313 315 313 300 283 271 278 274 267 265 275 283 284 277 269 266 259 232 224 221 224 230 222 217 218 223 226 229 232 236 235 235
99 106 134 114 4 354 300 266 353 314 318 321 291 273 279 290 289 274 275 286 290 287 287 293 289 280 273 276 265 235 231 228 222 228 233 233 232 232 232 234 236 240 239 238
257 135 169 78 17 343 341 353 345 313 318 315 297 287 297 303 303 299 277 266 281 296 298 287 278 284 282 277 252 231 234 236 235 236 237 237 236 238 240 240 239 243 244 239
263 239 203 281 271 302 348 354 345 334 308 295 293 283 272 271 274 279 290 289 288 298 296 279 285 289 283 264 243 235 242 247 246 244 243 240 238 240 243 245 246 245 244 241
270 245 233 248 122 51 333 309 310 309 298 287 281 285 281 291 301 286 274 297 308 306 293 288 290 288 287 264 250 252 253 252 250 248 251 250 248 248 248 249 251 250 246 243
232 232 229 211 207 233 251 276 310 320 323 313 306 306 296 267 265 282 292 292 299 305 298 294 290 288 285 268 254 255 253 251 250 247 246 253 253 252 251 250 250 252 251 250
240 241 246 238 225 223 233 242 270 286 293 302 304 298 296 291 283 285 288 289 288 300 299 291 286 285 277 268 260 256 252 256 260 257 253 254 254 253 254 253 253 252 253 254
246 247 254 266 257 232 231 232 246 264 262 264 281 287 289 292 293 293 295 297 296 295 292 291 288 279 272 267 265 260 258 256 253 250 251 255 258 258 256 254 256 258 261 258
Height
1518 1514 1513 1512 1511 1510 1514 1517 1522 1517 1513 1508 1505 1503 1503 1503 1504 1504 1505 1505 1504 1504 1505 1505 1506 1507 1508 1509 1510 1511 1512 1513 1514 1516 1517 1518 1518 1519 1520 1521 1521 1522 1523 1523
1518 1512 1511 1511 1507 1506 1507 1508 1510 1509 1509 1502 1501 1501 1501 1501 1502 1502 1503 1503 1503 1503 1503 1503 1504 1504 1505 1506 1507 1508 1509 1510 1512 1513 1514 1515 1516 1517 1517 1518 1519 1519 1520 1521
1524 1515 1512 1515 1507 1504 1504 1503 1504 1508 1505 1500 1500 1500 1499 1499 1500 1500 1501 1501 1502 1502 1502 1502 1502 1502 1502 1503 1504 1505 1506 1507 1509 1510 1511 1512 1513 1514 1515 1515 1516 1517 1517 1518
1526 1520 1524 1513 1501 1500 1501 1501 1500 1499 1498 1498 1498 1498 1498 1498 1499 1499 1499 1500 1500 1501 1500 1500 1500 1500 1500 1501 1502 1502 1503 1504 1506 1507 1508 1510 1510 1511 1512 1513 1513 1514 1515 1515
1528 1526 1520 1508 1501 1500 1501 1503 1499 1499 1498 1498 1498 1498 1499 1498 1498 1498 1498 1498 1498 1498 1498 1498 1498 1498 1498 1499 1499 1500 1500 1501 1502 1504 1505 1506 1507 1508 1509 1510 1510 1511 1512 1512
1525 1525 1523 1509 1500 1497 1500 1505 1499 1498 1497 1497 1497 1501 1500 1497 1497 1496 1496 1496 1496 1496 1496 1496 1496 1496 1496 1496 1496 1496 1497 1498 1500 1501 1502 1504 1505 1505 1506 1507 1507 1508 1509 1510
1523 1523 1515 1503 1498 1498 1509 1507 1499 1497 1496 1496 1496 1497 1497 1495 1495 1495 1495 1495 1494 1494 1493 1493 1493 1493 1493 1493 1493 1494 1495 1496 1497 1498 1499 1501 1502 1503 1503 1504 1504 1505 1505 1506
1521 1521 1516 1499 1498 1502 1502 1498 1497 1496 1495 1495 1495 1494 1494 1493 1493 1492 1492 1491 1491 1491 1491 1491 1491 1491 1490 1490 1491 1492 1492 1493 1494 1495 1497 1497 1498 1499 1500 1500 1501 1501 1501 1502
1511 1510 1501 1498 1498 1497 1497 1496 1495 1495 1494 1494 1493 1492 1492 1491 1490 1490 1489 1489 1488 1488 1488 1489 1488 1488 1488 1488 1489 1489 1489 1490 1491 1492 1493 1494 1494 1495 1496 1496 1497 1497 1497 1497
1505 1501 1498 1497 1496 1495 1495 1494 1493 1492 1492 1492 1491 1490 1490 1489 1488 1487 1487 1486 1486 1486 1486 1486 1486 1486 1486 1486 1486 1486 1486 1487 1487 1488 1489 1489 1490 1491 1492 1492 1492 1493 1493 1494
1503 1499 1497 1495 1494 1493 1492 1492 1491 1491 1490 1489 1488 1488 1487 1486 1485 1485 1484 1484 1484 1484 1483 1483 1483 1483 1483 1483 1483 1483 1483 1484 1484 1484 1485 1485 1486 1487 1487 1488 1489 1489 1489 1490
1500 1496 1496 1493 1492 1492 1490 1489 1489 1488 1487 1487 1486 1485 1484 1484 1483 1483 1482 1482 1481 1481 1481 1481 1480 1480 1480 1480 1479 1479 1479 1480 1480 1481 1481 1481 1481 1482 1483 1484 1485 1485 1486 1486
1492 1491 1491 1489 1489 1488 1487 1486 1486 1485 1484 1483 1483 1483 1482 1481 1481 1480 1480 1479 1479 1478 1478 1478 1477 1476 1476 1476 1476 1476 1476 1476 1477 1477 1477 1477 1477 1477 1478 1479 1480 1480 1480 1481
1489 1488 1487 1486 1485 1485 1484 1483 1482 1482 1481 1481 1480 1480 1479 1478 1478 1478 1477 1477 1476 1476 1475 1475 1474 1473 1473 1473 1472 1472 1472 1472 1472 1472 1473 1473 1473 1473 1474 1474 1474 1474 1475 1476
1485 1485 1484 1483 1482 1481 1481 1480 1479 1478 1478 1478 1477 1477 1476 1475 1475 1474 1474 1474 1473 1472 1472 1471 1471 1470 1470 1469 1469 1469 1469 1468 1468 1469 1469 1469 1469 1469 1470 1470 1470 1470 1470 1471
1481 1481 1480 1479 1478 1478 1477 1477 1476 1476 1475 1475 1474 1474 1473 1473 1472 1471 1471 1471 1470 1469 1468 1468 1467 1466 1466 1465 1465 1465 1465 1465 1465 1465 1464 1465 1465 1465 1465 1465 1465 1465 1465 1466
1477 1477 1476 1476 1475 1475 1474 1474 1474 1473 1473 1472 1472 1471 1470 1469 1469 1468 1468 1467 1466 1466 1465 1464 1464 1463 1462 1462 1461 1461 1461 1460 1461 1461 1460 1460 1461 1461 1461 1461 1461 1461 1461 1461
1474 1474 1474 1473 1473 1472 1472 1472 1471 1471 1470 1470 1469 1468 1467 1466 1465 1465 1464 1464 1463 1462 1462 1461 1460 1459 1459 1458 1457 1457 1457 1456 1456 1456 1456 1456 1456 1456 1457 1456 1456 1456 1456 1457
1471 1471 1471 1471 1471 1470 1470 1469 1468 1468 1468 1467 1466 1465 1464 1463 1463 1462 1461 1460 1459 1458 1458 1457 1457 1456 1455 1455 1454 1453 1453 1452 1452 1452 1452 1452 1452 1452 1452 1452 1452 1452 1452 1452
1468 1469 1469 1469 1468 1468 1467 1466 1466 1466 1465 1464 1463 1462 1461 1460 1460 1459 1458 1457 1456 1455 1455 1454 1453 1452 1451 1451 1450 1449 1448 1448 1448 1447 1448 1447 1447 1447 1448 1448 1448 1448 1448 1448
1466 1466 1466 1466 1466 1466 1465 1464 1464 1463 1462 1461 1460 1459 1458 1457 1457 1456 1454 1453 1453 1452 1451 1450 1449 1448 1447 1447 1446 1445 1445 1444 1444 1443 1443 1443 1443 1443 1443 1443 1443 1443 1443 1443
1465 1464 1464 1464 1464 1463 1463 1462 1461 1460 1459 1459 1457 1456 1455 1454 1453 1452 1451 1450 1449 1448 1447 1446 1445 1444 1444 1443 1442 1441 1440 1440 1439 1439 1439 1439 1438 1438 1438 1438 1438 1438 1438 1438
1463 1462 1462 1462 1462 1461 1460 1460 1459 1458 1457 1456 1454 1453 1452 1451 1450 1449 1447 1447 1446 1444 1443 1442 1441 1440 1439 1438 1437 1436 1436 1435 1435 1435 1434 1434 1434 1433 1433 1433 1433 1432 1432 1432
1461 1460 1460 1460 1459 1458 1457 1457 1456 1455 1454 1453 1452 1451 1449 1448 1446 1445 1444 1443 1442 1440 1439 1438 1437 1436 1435 1433 1432 1432 1431 1430 1430 1430 1430 1429 1429 1429 1428 1428 1427 1427 1427 1426
1458 1458 1457 1457 1456 1455 1455 1454 1453 1452 1451 1449 1448 1447 1446 1445 1443 1442 1440 1439 1438 1436 1434 1433 1432 1431 1430 1429 1428 1427 1427 1426 1426 1426 1425 1425 1424 1424 1423 1423 1422 1422 1422 1421
1455 1454 1454 1453 1453 1452 1451 1450 1449 1448 1447 1446 1445 1444 1443 1441 1440 1438 1437 1435 1434 1432 1431 1429 1428 1427 1426 1425 1424 1423 1422 1422 1421 1421 1420 1420 1419 1419 1418 1418 1417 1417 1417 1416
1451 1451 1450 1449 1449 1449 1448 1447 1446 1445 1444 1443 1441 1440 1439 1438 1436 1435 1433 1431 1430 1428 1427 1425 1424 1423 1422 1421 1420 1419 1418 1418 1417 1416 1416 1415 1414 1414 1413 1413 1412 1412 1411 1411